Погода в Ингельхайме-ам-Райн

Германия     49°58′30″N   8°03′32″E
темп.,
°C
ветер,
м/с
пор.,
м/с
влажн.,
%
обл.,
%
осадки,
мм/ч
давл.,
гПа
погр.,
м
26 февраля, пт
пт2601:00+9з128361 0.0 102923
04:00+8зсз228979 0.0 102923
07:00+7сз229281 0.0 103030
10:00+8ссз41090100 0.3 1031467
13:00+7ссз4885100 1.9 1032535
16:00+9с576481 0.1 10321033
19:00+6ссз367849 0.1 1034175
22:00+4ссз23820 0.0 103656
27 февраля, сб
сб2701:00+2ссз23840 0.0 103753
04:00+1ссз22890 0.0 103742
07:000ссз22920 0.0 103844
10:00+4с25730 0.0 1039491
13:00+8св34600 0.0 10381081
16:00+9св356031 0.0 10371217
19:00+5ссв247918 0.0 103794
22:00+3всв238420 0.0 103779
28 февраля, вс
вс2801:00+2св128613 0.0 103725
04:00+2с228719 0.0 103525
07:00+1ссв229211 0.0 103624
10:00+5в25805 0.0 1035550
13:00+8в35599 0.0 1034772
16:00+8всв35520 0.0 1032902
19:00+5в23620 0.0 103246
22:00+3всв23690 0.0 103339
1 марта, пн
пн101:00+2всв35790 0.0 1033120
04:00+1всв35810 0.0 1032119
07:000всв35810 0.0 1032142
10:00+4в35630 0.0 1032410
13:00+7в35550 0.0 1032531
16:00+10в25520 0.0 1030617
19:00+6всв23630 0.0 103135
22:00+5всв22690 0.0 103227
2 марта, вт
вт201:00+4всв22790 0.0 103229
04:00+3всв22830 0.0 103230
07:00+2всв228711 0.0 103231
10:00+5в237338 0.0 1033336
13:00+8юв226349 0.0 1032467
16:00+10ююв126490 0.0 1031494
19:00+6юв118274 0.0 103122
22:00+5ю118533 0.0 103322